This is the latest recevied weather packets stored in our database for station/object N1YZ. If no packets are shown the sender has not sent any weather packets the latest 10 day(s).
| Time | Temp. | Humidity | Pressure | Rain* | Wind** | Luminosity | Snow |
|---|---|---|---|---|---|---|---|
| 1777773455 | 12.78° C | 66% | 1036.7 hPa | 0 mm | - | 0 W/m² | - |
| 1777773152 | 12.78° C | 64% | 1036.6 hPa | 0 mm | - | 0 W/m² | - |
| 1777772848 | 13.33° C | 64% | 1036.5 hPa | 0 mm | - | 0 W/m² | - |
| 1777772546 | 13.33° C | 64% | 1036.4 hPa | 0 mm | - | 0 W/m² | - |
| 1777772243 | 13.33° C | 62% | 1036.2 hPa | 0 mm | - | 0 W/m² | - |
| 1777771941 | 13.33° C | 61% | 1036.4 hPa | 0 mm | - | 0 W/m² | - |
| 1777771638 | 13.33° C | 60% | 1036.1 hPa | 0 mm | - | 0 W/m² | - |
| 1777771335 | 13.89° C | 60% | 1035.9 hPa | 0 mm | - | 0 W/m² | - |
| 1777771031 | 13.89° C | 62% | 1036.1 hPa | 0 mm | - | 0 W/m² | - |
| 1777770728 | 13.89° C | 59% | 1036.1 hPa | 0 mm | - | 0 W/m² | - |
| 1777770424 | 13.89° C | 59% | 1035.9 hPa | 0 mm | - | 0 W/m² | - |
| 1777770122 | 13.89° C | 57% | 1035.8 hPa | 0 mm | - | 0 W/m² | - |
| 1777769819 | 14.44° C | 57% | 1035.9 hPa | 0 mm | - | 0 W/m² | - |
| 1777769517 | 14.44° C | 55% | 1035.9 hPa | 0 mm | - | 0 W/m² | - |
| 1777769213 | 15° C | 54% | 1035.8 hPa | 0 mm | - | 0 W/m² | - |
| 1777768911 | 15° C | 53% | 1035.8 hPa | 0 mm | - | 0 W/m² | - |
| 1777768608 | 15° C | 53% | 1035.5 hPa | 0 mm | - | 1 W/m² | - |
| 1777768305 | 15.56° C | 51% | 1035.4 hPa | 0 mm | - | 1 W/m² | - |
| 1777768001 | 15.56° C | 52% | 1035.5 hPa | 0 mm | - | 2 W/m² | - |
| 1777767698 | 15.56° C | 52% | 1035.4 hPa | 0 mm | - | 3 W/m² | - |
| 1777767394 | 16.11° C | 52% | 1035.4 hPa | 0 mm | - | 4 W/m² | - |
| 1777767091 | 16.11° C | 51% | 1035.3 hPa | 0 mm | - | 5 W/m² | - |
| 1777766789 | 16.67° C | 52% | 1035.2 hPa | 0 mm | - | 7 W/m² | - |
| 1777766486 | 16.67° C | 52% | 1035.1 hPa | 0 mm | - | 8 W/m² | - |
| 1777766182 | 16.67° C | 48% | 1035 hPa | 0 mm | - | 9 W/m² | - |
* Rain latest hour (hover to see other rain measurements)
** Current wind speed in m/s (hover to see current wind gust speed)